Weather in Ventspils

Latvia     57˚23′47″N   21˚34′01″E
temp.,
°C
wind,
m/s
gust,
m/s
humid.,
%
clouds,
%
prec.,
mm/h
press.,
hPa
HPBL,
m
29 november, sun
sun2923:00+5˚ene7881100 0.3 1026799
02:00+4˚e6778100 0.4 1026768
05:00+3˚e6781100 0.1 1025710
08:00+3˚e568299 0.1 1026641
11:00+3˚e4678100 0.2 1026686
14:00+3˚e457093 0.2 1025843
17:00+3˚ene557096 0.1 1024902
20:00+3˚ene456997 0.1 1024812
30 november, mon
mon3023:00+2˚ene4578100 0.1 1023657
02:00+3˚ne3371100 0.2 1022768
05:00+2˚ene2285100 0.1 1020381
08:00+2˚ese1191100 0.5 1020255
11:00+3˚ssw3384100 0.4 1019516
14:00+4˚w4568100 0.6 1019945
17:00+4˚sw457699 0.2 1017757
20:00+5˚sw6775100 0.6 1017927
1 december, tue
tue123:00+5˚sw7873100 0.4 10161133
02:00+5˚sw6775100 0.6 1017865
05:00+6˚sw7886100 0.4 1016696
08:00+7˚ssw8977100 0.7 1018884
11:00+6˚sw91192100 0.8 1019765
14:00+6˚sw111284100 1.9 1021918
17:00+6˚ssw91080100 0.1 1022891
20:00+5˚ssw8982100 0.1 1025701
2 december, wed
wed223:00+4˚ssw8986100 0.0 1026538
02:00+3˚s8987100 0.1 1027508
05:00+3˚s788499 0.0 1027460
08:00+3˚s6781100 0.0 1027364
11:00+2˚s777995 0.0 1028365
14:00+2˚s667564 0.0 1026516
17:00+1˚sse667941 0.0 1026451
20:00sse678262 0.0 1025406
3 december, thu
thu323:00sse78803 0.0 1024448
02:00sse677844 0.0 1023474
05:00sse6777100 0.0 1022449
08:00sse7882100 0.0 1021450
11:00sse8992100 0.0 1020515
14:00+1˚s7982100 0.1 1019831
17:00+2˚sse8984100 0.1 1018664
20:00+2˚se8985100 0.1 1018639